GFSFLT2_925_thetae_114.txt.gz
Theta_e
349 344 342 338 337 336 335 334 335 336 339 340 341 341 340 340 339 339 339 340 339 336 337 336 335 335 336 336 336 336 337 338
349 347 345 345 343 337 337 335 334 335 337 339 339 339 339 339 339 339 339 340 339 336 336 335 335 335 336 335 336 336 337 336
346 346 345 347 346 343 338 337 336 335 335 336 338 342 342 342 342 341 341 341 340 336 335 334 335 335 335 335 336 336 336 335
345 345 343 343 345 345 344 343 341 341 341 342 342 343 344 343 343 343 341 341 340 336 334 335 335 337 336 335 336 335 335 335
342 343 344 344 344 345 344 343 342 343 343 343 342 343 344 343 343 342 342 341 341 337 336 337 336 336 336 336 335 336 334 334
342 342 342 342 343 343 344 344 344 343 343 343 342 343 344 343 343 342 342 341 341 339 338 337 337 337 337 336 336 335 334 335
340 342 341 341 341 341 341 341 341 343 343 344 343 344 343 343 341 342 342 341 341 340 339 338 338 338 337 337 336 335 335 335
320 337 341 341 340 340 340 340 340 341 342 342 344 341 341 342 341 341 341 342 341 341 340 339 339 337 337 336 335 335 334 334
314 320 333 341 340 340 339 339 339 339 340 340 341 341 341 341 341 340 340 341 341 340 339 339 338 337 337 336 336 335 334 333
313 314 320 335 339 339 339 338 338 337 338 340 342 342 341 340 339 340 341 341 340 340 339 339 338 337 337 336 335 334 334 333
311 312 315 324 336 338 340 339 339 337 338 338 340 341 341 341 340 338 338 340 339 340 339 338 338 337 336 336 335 334 333 333
314 312 312 315 326 335 335 338 339 339 338 338 339 340 340 340 339 339 336 337 337 338 338 338 338 337 336 335 335 334 333 332
317 318 319 313 315 327 330 336 336 338 339 339 339 340 340 339 338 338 335 336 337 337 338 337 337 337 336 335 335 334 333 332
314 314 315 317 316 315 327 331 334 334 336 339 340 339 339 339 337 337 336 336 336 335 335 335 335 334 333 333 335 333 332 332
309 310 312 313 316 319 316 328 331 333 336 339 340 338 338 338 337 336 336 335 335 334 334 334 333 332 334 333 335 334 331 331
305 307 308 310 313 317 319 321 330 333 334 336 336 338 338 338 337 335 335 335 334 334 333 334 333 331 332 334 331 331 332 332
301 303 304 307 311 314 319 319 327 331 334 334 335 336 337 336 335 336 334 334 334 334 333 333 333 332 331 331 333 332 330 330
298 299 301 303 306 310 316 323 324 330 331 335 335 336 335 335 335 335 334 334 333 333 333 333 332 333 331 333 332 332 332 330
295 295 297 299 303 306 312 319 324 331 331 335 336 336 334 335 334 334 333 333 333 333 333 332 331 332 333 333 332 330 329 329
294 293 294 296 299 304 308 316 325 330 332 333 335 336 334 333 334 334 334 333 333 333 332 332 332 332 334 333 332 331 330 330

GFSFLT2_925_thetae_117.txt.gz
Theta_e
351 347 343 337 336 335 335 335 336 337 340 341 340 338 339 339 340 339 339 339 340 339 337 337 336 336 336 336 335 336 339 337
352 349 347 344 341 336 335 335 335 337 339 340 340 340 341 340 340 340 339 340 340 338 337 337 336 336 336 335 335 334 338 338
350 349 348 347 345 342 336 336 336 338 340 341 341 345 345 344 342 342 339 340 340 338 337 337 336 336 336 336 336 336 335 335
346 348 346 349 346 346 343 342 340 341 342 344 344 343 343 343 343 343 339 339 341 340 336 335 335 338 337 336 337 336 333 333
347 346 345 346 348 346 344 343 343 343 343 343 343 343 343 343 344 343 343 341 342 340 336 337 337 337 336 336 335 335 335 333
346 346 346 346 346 345 344 342 343 343 343 344 343 343 343 343 343 343 342 342 342 341 339 338 338 338 336 336 335 336 334 335
337 345 345 345 346 346 345 344 342 342 343 343 343 341 343 344 341 343 342 341 341 342 340 339 338 338 338 337 336 336 335 334
319 325 343 343 344 344 344 344 342 343 342 343 344 342 343 343 341 340 341 340 341 342 341 339 338 338 338 338 337 336 336 335
316 318 322 337 341 343 343 342 342 341 341 344 342 345 343 342 343 340 338 339 340 341 342 340 338 339 338 338 337 337 336 334
314 315 317 322 332 338 341 341 341 340 341 341 342 342 343 343 341 342 339 339 341 342 341 341 339 339 338 338 337 337 336 335
316 317 316 317 320 331 337 339 341 340 339 340 340 342 342 342 341 341 341 340 342 341 341 340 340 339 339 338 337 336 336 335
317 318 320 320 317 319 331 336 338 341 340 339 339 342 342 341 340 340 340 342 342 342 341 340 340 339 337 337 336 336 335 335
314 316 317 319 321 317 320 334 336 339 341 341 339 340 343 342 341 341 340 340 341 340 341 340 339 339 337 338 337 335 335 335
312 312 313 315 317 319 318 320 329 335 337 339 341 341 342 343 342 341 342 340 339 338 339 340 340 339 338 337 336 335 335 335
308 309 310 312 313 315 317 320 319 330 336 338 340 342 343 343 343 342 341 340 338 338 337 338 339 339 338 335 336 335 333 334
306 306 306 308 310 312 316 318 321 324 333 336 336 341 342 343 343 342 341 340 338 336 336 337 336 335 337 336 334 331 333 334
302 303 303 305 307 309 312 316 319 322 322 335 336 338 340 343 342 343 341 339 337 336 335 336 336 335 334 336 337 336 334 334
299 300 301 302 304 305 307 310 315 319 324 327 334 336 338 341 341 341 341 339 337 337 335 334 336 335 334 334 334 336 335 334
295 296 297 298 300 302 303 306 310 316 320 325 332 335 337 338 339 339 339 338 336 336 335 334 334 334 334 333 334 334 334 333
292 292 294 295 296 297 299 302 305 312 318 323 327 335 337 338 337 336 336 337 336 335 334 334 333 334 334 333 334 335 334 333

GFSFLT2_925_thetae_120.txt.gz
Theta_e
352 349 341 338 338 339 339 340 342 343 343 342 341 340 338 338 339 339 339 338 339 340 338 337 337 336 336 335 334 335 339 338
353 349 344 338 337 337 337 337 337 339 341 342 342 340 338 339 340 340 339 338 339 340 338 337 336 335 335 335 333 334 335 337
350 350 348 344 341 337 336 336 337 338 340 342 341 341 340 340 340 340 339 338 340 340 338 337 336 335 335 335 333 331 336 336
346 350 347 347 345 344 337 336 336 338 340 341 342 343 345 345 342 343 341 339 339 340 338 337 336 335 335 334 332 331 336 334
346 346 346 348 348 346 342 340 337 338 342 344 341 345 346 343 343 341 342 340 341 341 339 337 336 338 335 333 332 336 335 336
345 345 343 344 350 348 345 344 342 342 342 343 343 344 343 341 343 343 341 341 340 341 340 336 335 337 338 336 333 334 336 335
329 344 345 344 345 345 345 345 345 344 343 343 345 342 344 344 341 342 341 342 341 341 340 337 337 336 338 336 335 335 336 336
318 321 338 341 343 342 343 344 345 344 344 345 343 344 344 344 341 344 341 341 341 340 341 340 338 339 338 336 336 336 336 336
318 317 317 324 339 340 341 343 341 343 342 345 344 343 343 345 341 343 344 339 343 340 341 340 338 338 337 337 337 337 336 336
318 318 318 317 318 329 338 340 342 342 343 342 343 344 345 344 344 344 342 343 343 339 339 341 339 338 338 337 338 337 337 337
317 317 318 320 322 320 320 337 338 340 341 343 344 342 342 346 343 342 343 343 342 339 340 341 341 339 338 338 337 338 337 336
314 315 315 316 318 320 320 319 338 339 340 341 343 343 339 342 345 343 338 342 343 342 341 341 341 339 338 338 338 337 336 336
311 311 312 313 315 318 320 321 321 339 341 341 340 342 343 339 342 344 340 338 342 343 342 340 340 339 339 338 337 337 336 335
307 309 309 310 311 313 315 316 318 321 335 340 341 341 342 343 342 342 342 339 340 344 343 341 340 339 339 337 338 337 337 336
305 306 306 307 307 309 312 314 317 319 321 326 340 340 341 342 343 341 342 341 340 341 342 342 340 340 338 336 335 334 333 335
301 301 302 303 305 306 309 312 315 317 319 322 334 340 340 342 343 343 342 343 341 340 339 338 340 340 339 337 333 333 330 334
297 298 298 299 301 303 305 307 310 313 316 319 322 327 338 339 339 341 343 342 342 340 339 337 338 337 339 337 337 335 335 333
294 294 295 295 296 298 301 302 305 307 310 315 319 324 329 337 336 339 340 343 339 340 338 337 337 336 336 336 336 336 335 334
292 292 292 292 293 295 297 298 300 303 305 310 315 319 325 332 335 338 339 342 340 340 338 336 336 335 335 334 334 335 336 335
290 290 290 290 291 292 294 295 297 299 302 306 311 317 322 327 332 333 337 339 340 339 338 337 335 334 334 334 333 334 334 333

GFSFLT2_925_thetae_123.txt.gz
Theta_e
348 347 344 340 337 338 340 342 342 342 342 340 339 340 338 336 338 339 339 337 338 340 339 338 337 336 335 334 337 337 337 335
352 350 348 340 337 337 339 341 342 342 342 342 340 340 339 337 338 339 339 338 338 338 338 337 336 335 334 333 335 335 337 336
351 351 349 342 338 336 338 338 338 339 341 342 341 341 340 338 338 339 339 338 338 338 338 336 336 335 333 333 333 333 335 336
350 350 348 345 339 338 336 336 337 337 338 341 342 341 339 338 338 339 339 339 339 339 338 337 336 335 333 333 330 331 336 334
345 347 348 347 345 343 338 336 336 337 338 339 341 341 340 339 340 340 341 340 339 339 339 337 336 335 333 333 328 329 336 336
337 345 344 345 346 347 344 338 336 336 338 338 341 342 344 343 342 341 340 340 338 338 339 338 335 334 335 333 329 328 335 336
327 334 339 343 343 344 345 343 339 337 337 341 340 341 345 346 343 343 341 340 339 338 338 338 335 333 338 338 334 330 334 336
319 320 326 340 336 339 341 343 344 342 340 339 342 341 342 344 342 342 342 341 339 338 338 338 336 332 334 337 336 333 335 335
315 316 316 317 319 323 336 338 340 342 343 342 341 342 341 343 344 340 342 341 340 340 338 339 338 335 335 337 336 336 335 336
312 313 313 314 315 317 320 320 330 338 338 341 344 342 343 342 345 342 344 341 341 341 340 341 340 337 337 338 336 336 336 336
308 309 310 311 312 314 316 318 320 323 337 339 339 340 341 344 343 344 341 343 342 342 341 341 340 339 338 336 336 336 336 336
305 306 307 308 309 310 313 314 316 319 324 336 337 338 339 339 343 344 342 343 343 341 341 341 340 339 338 337 336 336 337 336
303 303 304 305 306 307 307 309 311 313 315 318 336 336 336 341 340 341 342 341 343 342 340 340 340 340 338 338 336 337 337 337
299 299 300 300 302 303 305 306 308 311 313 316 319 331 338 338 337 337 340 340 340 342 341 340 340 340 338 337 335 337 337 337
296 296 296 297 298 299 301 304 305 308 310 313 316 319 327 337 336 335 338 341 339 339 342 340 339 339 338 336 332 333 332 336
293 293 293 294 295 295 296 298 303 305 306 308 310 313 318 325 335 336 333 337 341 338 340 341 339 338 337 336 334 332 330 331
291 291 291 291 291 292 293 294 298 301 302 304 306 308 313 318 325 335 337 337 339 339 338 341 339 338 337 337 335 332 332 328
289 289 290 289 290 290 291 292 294 297 299 300 302 305 308 313 318 324 334 336 337 338 339 338 338 337 337 337 337 334 332 330
289 289 289 289 288 288 289 291 292 294 296 298 300 302 305 310 316 319 324 334 336 337 338 337 335 333 336 338 337 336 335 333
289 289 288 288 288 288 288 290 291 292 294 296 298 300 303 305 309 316 323 326 334 334 335 335 331 326 331 334 335 335 335 334

GFSFLT2_925_thetae_126.txt.gz
Theta_e
349 347 345 341 338 337 338 340 341 342 340 336 337 339 337 335 336 337 337 336 336 338 338 337 336 336 337 337 337 335 331 333
348 349 348 345 340 337 337 340 341 342 341 339 338 339 339 336 336 337 337 337 336 337 338 337 336 335 335 336 336 336 336 334
350 349 349 347 342 338 338 339 342 343 342 342 340 340 340 338 336 337 338 337 336 336 337 336 336 334 334 335 334 335 336 335
349 350 349 347 343 338 337 338 339 341 343 343 342 340 340 339 337 337 338 338 336 336 337 336 335 335 333 333 332 333 334 335
337 346 349 347 344 341 337 337 338 338 340 341 343 341 341 340 338 339 339 339 338 338 338 337 336 335 333 332 330 330 335 335
344 340 344 346 346 344 342 339 337 337 337 339 341 342 341 341 339 339 340 340 339 338 337 336 335 335 333 331 331 329 334 336
318 324 331 333 337 335 341 343 341 337 337 337 339 341 341 341 340 340 340 340 339 338 337 337 336 335 333 332 331 329 331 335
313 314 315 316 318 319 319 323 330 340 338 337 337 338 341 341 341 341 341 341 340 338 337 337 337 336 334 334 335 331 332 335
309 310 311 312 313 314 316 316 318 322 332 340 340 337 337 340 344 344 342 342 340 340 338 337 337 337 334 334 337 336 334 335
305 306 307 307 308 309 310 314 316 317 319 322 333 338 336 337 340 344 343 342 341 341 339 338 338 338 335 334 336 335 335 335
301 302 303 304 305 306 307 307 309 312 314 315 319 331 332 333 338 341 342 341 341 341 340 339 338 338 336 335 337 336 336 335
297 298 298 300 302 303 304 305 306 307 308 311 315 317 319 329 336 336 339 341 340 341 340 340 338 338 337 336 337 336 336 336
294 294 294 295 297 298 299 300 302 304 305 307 310 313 317 321 333 330 328 337 338 340 340 340 339 339 337 337 337 335 335 336
292 292 292 293 294 294 295 296 298 299 302 305 307 308 311 315 319 333 323 336 336 338 339 339 339 338 337 336 333 335 336 336
290 290 290 291 291 291 292 294 295 297 299 301 303 304 306 309 312 317 333 326 324 336 337 338 336 337 337 335 334 337 331 336
289 288 289 290 289 290 290 291 292 293 294 297 299 301 303 305 307 312 318 333 334 334 334 337 336 336 336 335 335 332 331 331
288 288 288 289 289 288 289 289 290 291 292 294 296 298 299 301 304 308 312 319 331 331 334 336 336 336 335 334 333 331 331 326
288 289 288 288 288 288 288 288 288 289 291 292 294 296 298 300 302 306 312 315 318 330 333 335 335 334 335 335 334 332 329 327
288 289 288 288 288 288 288 288 288 289 290 292 293 294 296 298 301 303 307 311 316 322 331 333 333 333 334 334 334 333 333 331
289 288 288 287 287 287 288 289 290 291 292 293 294 295 296 297 299 300 302 305 308 313 323 331 332 332 333 330 329 327 331 333

GFSFLT2_925_thetae_129.txt.gz
Theta_e
348 347 344 340 339 338 337 338 339 341 341 337 335 337 335 334 335 337 336 335 335 337 338 336 335 336 336 336 337 338 335 336
347 347 344 342 340 338 338 338 339 340 341 338 336 337 337 335 336 337 336 335 334 335 337 336 336 335 335 336 336 335 330 331
348 347 346 345 343 340 339 340 341 342 342 340 337 339 339 338 337 337 338 337 335 336 336 337 336 335 333 334 336 334 335 334
348 348 347 347 344 342 340 339 342 343 343 342 341 341 340 339 338 338 339 338 337 336 337 337 336 335 333 333 334 334 336 335
340 343 344 343 344 341 340 340 339 343 347 346 345 345 343 341 340 339 340 340 338 337 338 337 336 335 333 331 332 333 335 334
319 324 331 334 337 338 341 341 340 339 339 341 341 341 342 344 341 339 340 340 340 338 338 337 336 335 334 332 331 330 332 334
311 313 315 316 319 320 323 326 334 338 339 340 343 342 341 342 343 341 339 341 341 341 339 337 337 336 335 333 332 330 329 335
307 308 308 309 311 312 313 316 320 325 335 334 337 338 338 338 341 341 340 339 342 342 343 339 337 336 335 334 331 332 329 334
301 302 303 305 306 306 307 308 311 313 318 323 321 327 336 337 337 339 338 339 341 341 341 341 339 336 336 335 332 332 330 329
298 298 300 301 301 303 304 305 306 307 309 312 315 322 326 332 337 337 338 336 339 341 341 340 340 337 336 335 333 335 334 330
294 294 296 297 299 299 301 302 303 303 304 306 308 311 315 322 330 336 333 334 336 336 338 339 338 336 337 336 334 334 336 335
292 292 292 293 295 298 298 298 300 300 302 302 304 306 311 313 322 326 327 327 336 336 336 337 338 337 337 336 335 333 335 335
290 290 290 291 292 291 294 295 294 297 297 299 302 305 306 308 311 321 325 328 329 334 336 338 337 337 336 335 335 334 335 336
289 289 289 289 290 289 290 291 293 294 295 297 298 299 302 303 306 308 315 324 329 329 334 335 335 337 335 335 335 335 334 335
288 288 288 288 289 289 289 289 290 292 293 292 294 295 297 300 302 304 308 318 326 325 328 334 334 335 336 333 332 335 333 335
288 288 288 289 288 288 288 288 288 289 289 290 291 293 295 297 299 300 303 308 316 325 326 327 329 332 334 333 332 332 332 332
288 289 288 288 288 288 288 288 288 288 288 289 290 291 293 295 297 300 301 305 311 316 326 324 325 329 332 333 333 331 331 327
288 289 287 288 287 287 288 288 288 289 290 290 291 292 293 294 295 297 299 306 312 317 319 326 327 330 332 332 332 331 330 328
288 287 287 287 287 287 287 288 289 290 291 291 292 293 294 295 296 297 298 300 303 308 312 317 322 331 332 331 331 332 331 330
287 287 286 286 287 287 287 288 289 290 292 293 294 294 295 296 296 297 298 299 300 303 305 308 313 324 330 332 332 332 332 330